Back to catalog

STARLINK-37371

AliveCommunicationsVLEO
NORAD 68977·PAYLOAD·🇺🇸 United States

Launched May 1, 2026 from Cape Canaveral Space Force Station

Loading…

Next Passes (next 24 hours)

TLE

FreshSource: CelesTrak SupGP

Epoch: Sep 14, 2026, 23:32 UTC

1 68977C 26099AC  26257.98104167  .00026299  00000+0  77721-3 0  2572
2 68977  53.1566 101.2652 0001282  84.1230 197.0276 15.34369729    15

Track STARLINK-37371 in real time with AllMySat

Download on the App Store